| time (UTC) | temp F | wind direction | speed MPH | gust MPH | rain 1hr in | rain 24hr in | rain mn in | humidity % | barometer mb |
| 20260510144534 | 54 | 290 | 3.0 | 0.0 | 0.00 | 0.00 | 0.00 | 41 | 1013.2 |
| 20260510143026 | 55 | 255 | 2.0 | 0.0 | 0.00 | 0.00 | 0.00 | 43 | 1012.8 |
| 20260510141530 | 55 | 225 | 2.0 | 0.0 | 0.00 | 0.00 | 0.00 | 44 | 1012.7 |
| 20260510140021 | 55 | 290 | 4.0 | 0.0 | 0.00 | 0.00 | 0.00 | 44 | 1012.4 |
| 20260510134516 | 55 | 261 | 3.0 | 0.0 | 0.00 | 0.00 | 0.00 | 44 | 1012.4 |
| 20260510133013 | 55 | 224 | 3.0 | 0.0 | 0.00 | 0.00 | 0.00 | 44 | 1012.4 |
| 20260510131510 | 55 | 207 | 3.0 | 0.0 | 0.00 | 0.00 | 0.00 | 44 | 1012.5 |
| 20260510130003 | 55 | 236 | 4.0 | 0.0 | 0.00 | 0.00 | 0.00 | 44 | 1012.3 |
| 20260510124604 | 54 | 227 | 3.0 | 0.0 | 0.00 | 0.00 | 0.00 | 42 | 1012.2 |
| 20260510123102 | 54 | 194 | 2.0 | 0.0 | 0.00 | 0.00 | 0.00 | 41 | 1012.1 |
| 20260510121559 | 54 | 202 | 1.0 | 0.0 | 0.00 | 0.00 | 0.00 | 35 | 1012.1 |
| 20260510120055 | 54 | 205 | 4.0 | 0.0 | 0.00 | 0.00 | 0.00 | 21 | 1012.1 |
| 20260510114551 | 52 | 200 | 1.0 | 0.0 | 0.00 | 0.00 | 0.00 | 100 | 1011.8 |
| 20260510113046 | 50 | 202 | 1.0 | 0.0 | 0.00 | 0.00 | 0.00 | 100 | 1011.8 |
| 20260510111537 | 48 | 200 | 0.0 | 0.0 | 0.00 | 0.00 | 0.00 | 100 | 1011.6 |
| 20260510110033 | 47 | 200 | 0.0 | 0.0 | 0.00 | 0.00 | 0.00 | 100 | 1011.4 |
| 20260510104534 | 46 | 200 | 0.0 | 0.0 | 0.00 | 0.00 | 0.00 | 100 | 1011.4 |
| 20260510103025 | 46 | 200 | 0.0 | 0.0 | 0.00 | 0.00 | 0.00 | 100 | 1011.1 |
| 20260510101521 | 45 | 200 | 0.0 | 0.0 | 0.00 | 0.00 | 0.00 | 100 | 1011.3 |
| 20260510100017 | 45 | 200 | 0.0 | 0.0 | 0.00 | 0.00 | 0.00 | 100 | 1010.9 |
| 20260510094530 | 46 | 200 | 0.0 | 0.0 | 0.00 | 0.00 | 0.00 | 100 | 1010.8 |
| 20260510093008 | 46 | 200 | 0.0 | 0.0 | 0.00 | 0.00 | 0.00 | 100 | 1010.5 |
| 20260510091507 | 46 | 200 | 0.0 | 0.0 | 0.00 | 0.00 | 0.00 | 100 | 1010.1 |
| 20260510090003 | 47 | 200 | 0.0 | 0.0 | 0.00 | 0.00 | 0.00 | 2 | 1010.1 |
| 20260510084603 | 48 | 200 | 0.0 | 0.0 | 0.00 | 0.00 | 0.00 | 4 | 1010.0 |
| 20260510083055 | 48 | 200 | 0.0 | 0.0 | 0.00 | 0.00 | 0.00 | 4 | 1009.8 |
| 20260510081558 | 49 | 200 | 0.0 | 0.0 | 0.00 | 0.00 | 0.00 | 4 | 1009.8 |
| 20260510080048 | 49 | 200 | 0.0 | 0.0 | 0.00 | 0.00 | 0.00 | 3 | 1009.9 |
| 20260510074544 | 49 | 200 | 0.0 | 0.0 | 0.00 | 0.00 | 0.00 | 1 | 1010.0 |
| 20260510073040 | 49 | 200 | 0.0 | 0.0 | 0.00 | 0.00 | 0.00 | 100 | 1010.0 |
| 20260510071537 | 50 | 200 | 1.0 | 0.0 | 0.00 | 0.00 | 0.00 | 100 | 1010.1 |
| 20260510070036 | 50 | 199 | 1.0 | 0.0 | 0.00 | 0.00 | 0.00 | 100 | 1010.3 |
| 20260510064529 | 50 | 208 | 2.0 | 0.0 | 0.00 | 0.00 | 0.00 | 6 | 1011.0 |
| 20260510063024 | 50 | 229 | 2.0 | 0.0 | 0.00 | 0.00 | 0.00 | 7 | 1011.5 |
| 20260510061525 | 51 | 238 | 3.0 | 0.0 | 0.00 | 0.00 | 0.00 | 2 | 1011.5 |
| 20260510060015 | 51 | 235 | 6.0 | 0.0 | 0.00 | 0.00 | 0.00 | 100 | 1011.7 |
| 20260510054511 | 50 | 245 | 3.0 | 0.0 | 0.00 | 0.00 | 0.00 | 100 | 1011.4 |
| 20260510053007 | 49 | 209 | 4.0 | 0.0 | 0.00 | 0.00 | 0.00 | 100 | 1011.2 |
| 20260510051509 | 49 | 211 | 1.0 | 0.0 | 0.00 | 0.00 | 0.00 | 100 | 1010.9 |
| 20260510044555 | 48 | 210 | 3.0 | 0.0 | 0.00 | 0.00 | 0.00 | 100 | 1010.7 |
| 20260510043052 | 48 | 209 | 2.0 | 0.0 | 0.00 | 0.00 | 0.00 | 100 | 1010.4 |
| 20260510041605 | 48 | 210 | 2.0 | 0.0 | 0.00 | 0.00 | 0.00 | 100 | 1010.4 |
| 20260510040048 | 48 | 214 | 1.0 | 0.0 | 0.00 | 0.00 | 0.00 | 100 | 1010.7 |
| 20260510034544 | 47 | 214 | 1.0 | 0.0 | 0.00 | 0.00 | 0.37 | 100 | 1010.6 |
| 20260510033040 | 46 | 214 | 0.0 | 0.0 | 0.00 | 0.00 | 0.37 | 100 | 1010.4 |
| 20260510031547 | 46 | 214 | 0.0 | 0.0 | 0.00 | 0.00 | 0.37 | 100 | 1010.4 |
| 20260510030035 | 47 | 214 | 0.0 | 0.0 | 0.00 | 0.00 | 0.37 | 100 | 1010.5 |
| 20260510024524 | 47 | 214 | 0.0 | 0.0 | 0.00 | 0.00 | 0.37 | 8 | 1010.2 |
| 20260510023019 | 48 | 214 | 0.0 | 0.0 | 0.00 | 0.00 | 0.37 | 14 | 1010.3 |
| 20260510021525 | 49 | 214 | 0.0 | 0.0 | 0.00 | 0.00 | 0.37 | 17 | 1010.5 |
| 20260510020013 | 50 | 214 | 0.0 | 0.0 | 0.00 | 0.00 | 0.37 | 18 | 1010.4 |
| 20260510014510 | 50 | 214 | 0.0 | 0.0 | 0.00 | 0.00 | 0.37 | 20 | 1010.4 |
| 20260510013005 | 51 | 214 | 0.0 | 0.0 | 0.00 | 0.00 | 0.37 | 20 | 1010.0 |
| 20260510011505 | 51 | 214 | 1.0 | 0.0 | 0.00 | 0.00 | 0.37 | 17 | 1010.1 |
| 20260510010100 | 51 | 215 | 2.0 | 0.0 | 0.00 | 0.00 | 0.37 | 17 | 1010.3 |
| 20260510004603 | 51 | 236 | 1.0 | 0.0 | 0.00 | 0.00 | 0.37 | 19 | 1010.0 |
| 20260510003051 | 51 | 238 | 1.0 | 0.0 | 0.00 | 0.00 | 0.37 | 22 | 1009.9 |
| 20260510001548 | 51 | 238 | 1.0 | 0.0 | 0.00 | 0.00 | 0.37 | 26 | 1009.7 |
| 20260510000042 | 52 | 238 | 3.0 | 0.0 | 0.00 | 0.00 | 0.37 | 28 | 1009.8 |
| 20260509234538 | 52 | 207 | 4.0 | 0.0 | 0.00 | 0.00 | 0.37 | 32 | 1009.4 |
| 20260509233035 | 52 | 198 | 4.0 | 0.0 | 0.00 | 0.00 | 0.37 | 35 | 1009.4 |
| 20260509231530 | 52 | 221 | 4.0 | 0.0 | 0.00 | 0.00 | 0.37 | 37 | 1009.2 |
| 20260509230027 | 52 | 193 | 4.0 | 0.0 | 0.00 | 0.00 | 0.37 | 38 | 1009.0 |
| 20260509224522 | 53 | 204 | 5.0 | 0.0 | 0.00 | 0.00 | 0.37 | 37 | 1008.9 |
| 20260509223020 | 52 | 211 | 6.0 | 0.0 | 0.00 | 0.00 | 0.37 | 36 | 1009.1 |
| 20260509221516 | 52 | 192 | 5.0 | 0.0 | 0.00 | 0.00 | 0.37 | 35 | 1009.2 |
| 20260509220011 | 52 | 208 | 7.0 | 0.0 | 0.00 | 0.00 | 0.37 | 32 | 1009.2 |
| 20260509214506 | 52 | 215 | 7.0 | 0.0 | 0.00 | 0.00 | 0.37 | 28 | 1009.3 |
| 20260509213002 | 52 | 203 | 9.0 | 0.0 | 0.00 | 0.00 | 0.37 | 32 | 1009.6 |
| 20260509211602 | 53 | 224 | 4.0 | 0.0 | 0.00 | 0.00 | 0.37 | 32 | 1009.6 |
| 20260509210106 | 52 | 202 | 7.0 | 0.0 | 0.00 | 0.00 | 0.37 | 28 | 1009.7 |
| 20260509204551 | 51 | 224 | 8.0 | 0.0 | 0.00 | 0.00 | 0.37 | 21 | 1009.6 |
| 20260509203046 | 51 | 229 | 5.0 | 0.0 | 0.00 | 0.00 | 0.37 | 10 | 1009.9 |
| 20260509201546 | 51 | 188 | 5.0 | 0.0 | 0.00 | 0.00 | 0.37 | 6 | 1010.0 |
| 20260509200048 | 50 | 198 | 7.0 | 0.0 | 0.00 | 0.00 | 0.37 | 4 | 1010.1 |
| 20260509194537 | 50 | 223 | 6.0 | 0.0 | 0.00 | 0.00 | 0.37 | 100 | 1010.3 |
| 20260509193032 | 50 | 182 | 5.0 | 0.0 | 0.00 | 0.00 | 0.36 | 100 | 1010.3 |
| 20260509191528 | 50 | 206 | 4.0 | 0.0 | 0.00 | 0.00 | 0.36 | 100 | 1010.4 |
| 20260509190023 | 49 | 184 | 6.0 | 0.0 | 0.00 | 0.00 | 0.36 | 100 | 1010.6 |
| 20260509184532 | 49 | 188 | 2.0 | 0.0 | 0.00 | 0.00 | 0.36 | 100 | 1010.7 |
| 20260509183015 | 49 | 196 | 2.0 | 0.0 | 0.00 | 0.00 | 0.35 | 100 | 1010.7 |
| 20260509181514 | 49 | 192 | 3.0 | 0.0 | 0.00 | 0.00 | 0.35 | 100 | 1010.6 |
| 20260509180008 | 49 | 189 | 4.0 | 0.0 | 0.00 | 0.00 | 0.35 | 100 | 1010.6 |
| 20260509174508 | 49 | 153 | 3.0 | 0.0 | 0.00 | 0.00 | 0.35 | 100 | 1010.6 |
| 20260509173119 | 49 | 200 | 2.0 | 0.0 | 0.00 | 0.00 | 0.34 | 100 | 1010.5 |
| 20260509171602 | 49 | 206 | 3.0 | 0.0 | 0.00 | 0.00 | 0.34 | 100 | 1010.6 |
| 20260509164557 | 48 | 207 | 2.0 | 0.0 | 0.00 | 0.00 | 0.34 | 100 | 1011.2 |
| 20260509163048 | 49 | 198 | 1.0 | 0.0 | 0.00 | 0.00 | 0.33 | 100 | 1011.3 |
| 20260509161542 | 48 | 192 | 0.0 | 0.0 | 0.00 | 0.00 | 0.32 | 100 | 1011.4 |
| 20260509160036 | 48 | 192 | 1.0 | 0.0 | 0.00 | 0.00 | 0.31 | 100 | 1011.6 |
| 20260509154532 | 48 | 193 | 0.0 | 0.0 | 0.00 | 0.00 | 0.30 | 100 | 1011.9 |
| 20260509153032 | 47 | 193 | 0.0 | 0.0 | 0.00 | 0.00 | 0.28 | 100 | 1012.2 |
| 20260509151524 | 47 | 193 | 1.0 | 0.0 | 0.00 | 0.00 | 0.28 | 100 | 1012.4 |
| 20260509150020 | 46 | 192 | 2.0 | 0.0 | 0.00 | 0.00 | 0.27 | 100 | 1012.4 |